UNISAT-6 (40012 NORAD) Tracking and Keplerian Element Data

This shows tracking and keplerian element data for the satellite.

Feedback or suggestion? Click here.




ElementValue
Catalog40012
NameUNISAT-6
Epoch Orbit53647
Epoch Day159.94476944
Epoch Year2024
RAAN322.7478
Inclination97.7023
Eccentricity0.0052008
Argument of Perigee336.7077
Mean Anonmoly23.1779
Mean Motion14.7984774
Decay Rate4.798E-05
L11 40012U 14033C 24159.94476944 .00004798 00000+0 62871-3 0 9990
L22 40012 97.7023 322.7478 0052008 336.7077 23.1779 14.79847740536473



Live tracking and technical data element details for UNISAT-6 (NORAD 40012). UNISAT-6 can be tracked NOW for your location showing map with azimuth and elevation plus other details from your city location.







IsCatalogInMostPopularTable: catalog: 40012, numindb: 686
Update: records affected: 1



GetName: 40012 UNISAT-6

Hit Count: updated at: Sun, 23 Jun 2024 02:43:32 GMT